DW7346 Weather Reports


time (UTC)temp
F
wind
direction
speed
knots
gust
knots
rain 1hr
in
rain 24hr
in
rain mn
in
humidity
%
barometer
mb
20260509123021 68 262 0.9 3.5 0.00 0.02 0.01 95 1008.1
20260509121533 68 301 0.9 3.5 0.00 0.02 0.01 95 1008.0
20260509120019 67 300 0.9 4.3 0.00 0.02 0.01 95 1007.9
20260509114537 68 285 0.0 2.6 0.00 0.03 0.01 94 1007.8
20260509113018 68 286 0.0 3.5 0.00 0.03 0.01 94 1007.3
20260509111516 68 286 1.7 4.3 0.00 0.03 0.01 94 1006.8
20260509110016 68 299 0.9 4.3 0.00 0.03 0.01 94 1006.8
20260509104520 68 90 0.0 0.0 0.00 0.04 0.01 93 1006.4
20260509103012 68 55 0.0 0.0 0.00 0.04 0.01 93 1006.1
20260509101512 69 55 0.0 0.0 0.00 0.04 0.01 92 1006.1
20260509100012 69 55 0.0 0.9 0.00 0.04 0.01 91 1006.2
20260509094510 70 65 0.0 0.0 0.00 0.04 0.01 91 1005.7
20260509093010 70 72 0.0 1.7 0.00 0.04 0.01 90 1005.6
20260509091510 70 187 0.9 2.6 0.00 0.04 0.01 90 1005.3
20260509090022 71 185 0.9 3.5 0.00 0.04 0.01 90 1005.5
20260509084508 71 211 0.0 3.5 0.00 0.05 0.01 91 1005.2
20260509083016 71 131 0.9 8.7 0.00 0.05 0.01 91 1003.6
20260509081505 71 241 1.7 7.0 0.00 0.05 0.01 91 1004.0
20260509080002 71 189 2.6 7.8 0.00 0.05 0.01 91 1004.9
20260509074600 71 207 4.3 9.6 0.00 0.06 0.01 91 1005.9
20260509073106 71 235 3.5 8.7 0.00 0.06 0.01 91 1006.7
20260509071551 70 213 5.2 12.2 0.01 0.06 0.01 92 1007.0
20260509070055 69 191 3.5 8.7 0.01 0.06 0.01 93 1007.4
20260509064546 69 209 3.5 7.0 0.01 0.06 0.01 93 1007.8
20260509063050 69 257 1.7 3.5 0.01 0.06 0.01 93 1008.2
20260509061544 69 221 0.9 4.3 0.00 0.05 0.00 92 1008.1
20260509060042 69 200 0.9 2.6 0.00 0.05 0.00 91 1007.8
20260509054542 70 68 0.0 1.7 0.00 0.05 0.00 90 1008.0
20260509053043 70 45 0.0 0.0 0.00 0.05 0.00 89 1008.6
20260509051537 71 14 0.0 0.9 0.00 0.05 0.00 89 1008.7
20260509050048 71 19 0.0 1.7 0.00 0.05 0.00 89 1009.4
20260509044535 71 136 0.0 2.6 0.00 0.05 0.05 87 1008.0
20260509043040 71 90 0.0 1.7 0.00 0.05 0.05 86 1008.0
20260509041530 72 90 0.0 3.5 0.00 0.05 0.05 86 1008.0
20260509040031 72 105 0.9 2.6 0.00 0.05 0.05 86 1007.5
20260509034529 72 151 0.9 2.6 0.00 0.05 0.05 85 1007.0
20260509033037 72 136 1.7 4.3 0.00 0.05 0.05 85 1007.6
20260509031531 72 6 1.7 4.3 0.00 0.05 0.05 85 1008.3
20260509030028 72 62 0.0 3.5 0.00 0.05 0.05 86 1007.8
20260509024529 72 126 0.9 5.2 0.00 0.05 0.05 86 1006.9
20260509023027 72 105 0.9 2.6 0.00 0.05 0.05 85 1006.6
20260509021526 72 165 0.0 1.7 0.00 0.05 0.05 85 1006.1
20260509020025 72 98 0.0 5.2 0.00 0.05 0.05 84 1006.1
20260509014527 72 190 0.9 5.2 0.00 0.05 0.05 84 1005.8
20260509013027 73 203 0.9 4.3 0.00 0.05 0.05 83 1006.1
20260509011522 73 168 0.0 3.5 0.00 0.05 0.05 83 1006.3
20260509010023 73 199 0.0 4.3 0.00 0.05 0.05 82 1006.2
20260509004522 73 207 0.9 4.3 0.00 0.05 0.05 81 1006.0
20260509003024 74 155 0.9 6.1 0.00 0.05 0.05 79 1005.7
20260509001521 74 56 0.9 4.3 0.00 0.05 0.05 78 1005.6
20260509000035 75 149 0.9 7.8 0.00 0.05 0.05 78 1005.6
20260508234517 75 189 0.9 4.3 0.00 0.05 0.05 77 1005.8
20260508233016 75 192 0.9 5.2 0.00 0.05 0.05 75 1006.0
20260508231515 76 168 0.9 6.1 0.00 0.05 0.05 75 1006.0
20260508230014 76 216 1.7 4.3 0.00 0.05 0.05 74 1006.0
20260508224532 76 231 1.7 5.2 0.00 0.05 0.05 74 1006.2
20260508223013 77 188 1.7 4.3 0.00 0.05 0.05 73 1006.2
20260508221515 77 217 2.6 7.0 0.00 0.05 0.05 72 1006.2
20260508220010 76 193 1.7 6.1 0.00 0.05 0.05 72 1006.3
20260508214516 77 212 2.6 7.8 0.00 0.05 0.05 71 1006.2
20260508213009 77 51 0.9 6.1 0.00 0.05 0.05 72 1006.3
20260508211505 77 107 1.7 7.0 0.00 0.05 0.05 72 1006.5
20260508210005 77 181 2.6 8.7 0.00 0.05 0.05 72 1006.6
20260508204501 76 126 0.9 6.1 0.00 0.05 0.05 74 1007.0
20260508203107 73 247 1.7 5.2 0.00 0.05 0.05 75 1007.8
20260508201555 73 219 2.6 7.8 0.00 0.05 0.05 76 1008.5
20260508200108 74 209 0.9 7.0 0.00 0.05 0.05 76 1008.5
20260508194553 74 214 3.5 7.0 0.00 0.05 0.05 75 1008.5
20260508193059 74 175 2.6 8.7 0.00 0.05 0.05 75 1008.6
20260508191550 75 226 2.6 7.0 0.00 0.05 0.05 73 1008.7
20260508190049 76 130 3.5 8.7 0.00 0.05 0.05 72 1008.7
20260508184548 76 216 2.6 7.0 0.00 0.05 0.05 73 1008.7
20260508183101 76 223 0.9 6.1 0.00 0.05 0.05 73 1008.8
20260508181552 76 205 2.6 6.1 0.00 0.05 0.05 72 1009.2
20260508180040 75 226 1.7 6.1 0.00 0.05 0.05 72 1009.6
20260508174538 75 186 1.7 7.0 0.00 0.05 0.05 75 1009.8
20260508173037 74 245 0.0 5.2 0.00 0.05 0.05 76 1010.0
20260508171535 73 132 0.9 7.0 0.00 0.05 0.05 74 1010.0
20260508170028 72 224 1.7 5.2 0.00 0.05 0.05 74 1010.5
20260508164525 71 184 1.7 4.3 0.00 0.05 0.05 75 1010.8
20260508163023 71 177 0.9 4.3 0.00 0.05 0.05 75 1011.2
20260508161530 69 207 0.9 7.0 0.00 0.05 0.05 79 1011.4
20260508160011 67 105 0.9 4.3 0.01 0.05 0.05 82 1011.6
20260508154509 65 179 0.9 3.5 0.01 0.05 0.05 85 1011.7
20260508153005 64 212 3.5 6.1 0.01 0.05 0.05 86 1012.0
20260508151504 63 169 0.9 3.5 0.01 0.05 0.05 91 1011.8
20260508150008 63 205 0.0 2.6 0.00 0.04 0.04 93 1012.3
20260508144502 63 108 0.9 2.6 0.00 0.04 0.04 96 1012.2
20260508143005 62 192 0.9 3.5 0.00 0.04 0.04 97 1012.2
20260508141608 62 265 0.0 1.7 0.00 0.04 0.04 96 1012.6
20260508140109 62 101 0.0 1.7 0.00 0.04 0.04 97 1012.4
20260508134559 62 92 0.0 2.6 0.00 0.04 0.04 97 1012.3
20260508133059 61 80 0.0 2.6 0.00 0.04 0.04 97 1012.2
20260508131600 60 73 0.0 0.0 0.00 0.04 0.04 97 1012.3
20260508130057 60 73 0.0 1.7 0.00 0.04 0.04 96 1012.3
20260508124601 60 127 0.0 2.6 0.01 0.04 0.04 96 1012.5